Year,Month,Day,Hour,Minute,Value (Times are PST for temperature in C)
2012,09,21,13,10,14.20
2012,09,21,13,11,14.30
2012,09,21,13,12,14.40
2012,09,21,13,13,14.50
2012,09,21,13,14,14.60
2012,09,21,13,15,14.70
2012,09,21,13,16,14.70
2012,09,21,13,17,14.60
2012,09,21,13,18,14.60
2012,09,21,13,19,14.60
2012,09,21,13,20,14.60
2012,09,21,13,21,14.60
2012,09,21,13,22,14.50
2012,09,21,13,23,14.50
2012,09,21,13,24,14.50
2012,09,21,13,25,14.50
2012,09,21,13,26,14.50
2012,09,21,13,27,14.50
2012,09,21,13,28,14.60
2012,09,21,13,29,14.60
2012,09,21,13,30,14.70
2012,09,21,13,31,14.70
2012,09,21,13,32,14.60
2012,09,21,13,33,14.60
2012,09,21,13,34,14.60
2012,09,21,13,35,14.60
2012,09,21,13,36,14.70
2012,09,21,13,37,14.70
2012,09,21,13,38,14.70
2012,09,21,13,39,14.70
2012,09,21,13,40,14.70
2012,09,21,13,41,14.70
2012,09,21,13,42,14.70
2012,09,21,13,43,14.70
2012,09,21,13,44,14.80
2012,09,21,13,45,14.80
2012,09,21,13,46,14.80
2012,09,21,13,47,14.80
2012,09,21,13,48,14.80
2012,09,21,13,49,14.80
2012,09,21,13,50,14.70
2012,09,21,13,51,14.70
2012,09,21,13,52,14.70
2012,09,21,13,53,14.70
2012,09,21,13,54,14.80
2012,09,21,13,55,14.80
2012,09,21,13,56,14.80
2012,09,21,13,57,14.70
2012,09,21,13,58,14.70
2012,09,21,13,59,14.70
2012,09,21,14,00,14.70
2012,09,21,14,01,14.70
2012,09,21,14,02,14.70
2012,09,21,14,03,14.70
2012,09,21,14,04,14.70
2012,09,21,14,05,14.80
2012,09,21,14,06,14.80
2012,09,21,14,07,14.80
2012,09,21,14,08,14.70
2012,09,21,14,09,14.70
2012,09,21,14,10,14.80
2012,09,21,14,11,14.80
2012,09,21,14,12,14.80
2012,09,21,14,13,14.80
2012,09,21,14,14,14.80
2012,09,21,14,15,14.80
2012,09,21,14,16,14.80
2012,09,21,14,17,14.80
2012,09,21,14,18,14.80
2012,09,21,14,19,14.80
2012,09,21,14,20,14.80
2012,09,21,14,21,14.80
2012,09,21,14,22,14.80
2012,09,21,14,23,14.80
2012,09,21,14,24,14.80
2012,09,21,14,25,14.80
2012,09,21,14,26,14.80
2012,09,21,14,27,14.80
2012,09,21,14,28,14.90
2012,09,21,14,29,14.90
2012,09,21,14,30,14.90
2012,09,21,14,31,14.90
2012,09,21,14,32,14.90
2012,09,21,14,33,14.80
2012,09,21,14,34,14.80
2012,09,21,14,35,14.80
2012,09,21,14,36,14.80
2012,09,21,14,37,14.90
2012,09,21,14,38,14.90
2012,09,21,14,39,15.00
2012,09,21,14,40,15.10
2012,09,21,14,41,15.10
2012,09,21,14,42,15.20
2012,09,21,14,43,15.20
2012,09,21,14,44,15.20
2012,09,21,14,45,15.30
2012,09,21,14,46,15.30
2012,09,21,14,47,15.30
2012,09,21,14,48,15.30
2012,09,21,14,49,15.40
2012,09,21,14,50,15.40
2012,09,21,14,51,15.50
2012,09,21,14,52,15.50
2012,09,21,14,53,15.50
2012,09,21,14,54,15.50
2012,09,21,14,55,15.40
2012,09,21,14,56,15.30
2012,09,21,14,57,15.30
2012,09,21,14,58,15.20
2012,09,21,14,59,15.10
2012,09,21,15,00,15.10
2012,09,21,15,01,15.10
2012,09,21,15,02,15.10
2012,09,21,15,03,15.10
2012,09,21,15,04,15.10
2012,09,21,15,05,15.00
2012,09,21,15,06,15.00
2012,09,21,15,07,15.10
2012,09,21,15,08,15.10
2012,09,21,15,09,15.10
2012,09,21,15,10,15.10
2012,09,21,15,11,15.20
2012,09,21,15,12,15.20
2012,09,21,15,13,15.20
2012,09,21,15,14,15.10
2012,09,21,15,15,15.10
2012,09,21,15,16,15.10
2012,09,21,15,17,15.10
2012,09,21,15,18,15.10
2012,09,21,15,19,15.20
2012,09,21,15,20,15.20
2012,09,21,15,21,15.20
2012,09,21,15,22,15.20
2012,09,21,15,23,15.20
2012,09,21,15,24,15.10
2012,09,21,15,25,15.10
2012,09,21,15,26,15.00
2012,09,21,15,27,15.00
2012,09,21,15,28,15.10
2012,09,21,15,29,15.10
2012,09,21,15,30,15.20
2012,09,21,15,31,15.20
2012,09,21,15,32,15.20
2012,09,21,15,33,15.20
2012,09,21,15,34,15.20
2012,09,21,15,35,15.10
2012,09,21,15,36,15.10
2012,09,21,15,37,15.10
2012,09,21,15,38,15.10
2012,09,21,15,39,15.00
2012,09,21,15,40,15.00
2012,09,21,15,41,15.00
2012,09,21,15,42,15.10
2012,09,21,15,43,15.10
2012,09,21,15,44,15.00
2012,09,21,15,45,15.00
2012,09,21,15,46,15.00
2012,09,21,15,47,15.00
2012,09,21,15,48,15.00
2012,09,21,15,49,15.00
2012,09,21,15,50,15.00
2012,09,21,15,51,15.00
2012,09,21,15,52,15.00
2012,09,21,15,53,15.00
2012,09,21,15,54,15.00
2012,09,21,15,55,14.90
2012,09,21,15,56,14.90
2012,09,21,15,57,14.90
2012,09,21,15,58,15.00
2012,09,21,15,59,15.00
2012,09,21,16,00,15.00
2012,09,21,16,01,15.00
2012,09,21,16,02,15.00
2012,09,21,16,03,15.00
2012,09,21,16,04,15.00
2012,09,21,16,05,15.00
2012,09,21,16,06,15.00
2012,09,21,16,07,14.90
2012,09,21,16,08,14.90
2012,09,21,16,09,14.90
2012,09,21,16,10,14.80
2012,09,21,16,11,14.80
2012,09,21,16,12,14.80
2012,09,21,16,13,14.80
2012,09,21,16,14,14.80
2012,09,21,16,15,14.80
2012,09,21,16,16,14.80
2012,09,21,16,17,14.80
2012,09,21,16,18,14.80
2012,09,21,16,19,14.80
2012,09,21,16,20,14.80
2012,09,21,16,21,14.70
2012,09,21,16,22,14.70
2012,09,21,16,23,14.70
2012,09,21,16,24,14.60
2012,09,21,16,25,14.60
2012,09,21,16,26,14.60
2012,09,21,16,27,14.60
2012,09,21,16,28,14.60
2012,09,21,16,29,14.50
2012,09,21,16,30,14.50
2012,09,21,16,31,14.50
2012,09,21,16,32,14.50
2012,09,21,16,33,14.50
2012,09,21,16,34,14.50
2012,09,21,16,35,14.50
2012,09,21,16,36,14.50
2012,09,21,16,37,14.50
2012,09,21,16,38,14.50
2012,09,21,16,39,14.50
2012,09,21,16,40,14.50
2012,09,21,16,41,14.60
2012,09,21,16,42,14.60
2012,09,21,16,43,14.60
2012,09,21,16,44,14.70
2012,09,21,16,45,14.60
2012,09,21,16,46,14.70
2012,09,21,16,47,14.60
2012,09,21,16,48,14.60
2012,09,21,16,49,14.60
2012,09,21,16,50,14.60
2012,09,21,16,51,14.60
2012,09,21,16,52,14.60
2012,09,21,16,53,14.50
2012,09,21,16,54,14.50
2012,09,21,16,55,14.50
2012,09,21,16,56,14.50
2012,09,21,16,57,14.50
2012,09,21,16,58,14.50
2012,09,21,16,59,14.50
2012,09,21,17,00,14.60
2012,09,21,17,01,14.60
2012,09,21,17,02,14.60
2012,09,21,17,03,14.60
2012,09,21,17,04,14.60
2012,09,21,17,05,14.50
2012,09,21,17,06,14.50
2012,09,21,17,07,14.40
2012,09,21,17,08,14.40
2012,09,21,17,09,14.40
2012,09,21,17,10,14.40
2012,09,21,17,11,14.40
2012,09,21,17,12,14.40
2012,09,21,17,13,14.40
2012,09,21,17,14,14.40
2012,09,21,17,15,14.30
2012,09,21,17,16,14.30
2012,09,21,17,17,14.30
2012,09,21,17,18,14.20
2012,09,21,17,19,14.20
2012,09,21,17,20,14.20
2012,09,21,17,21,14.20
2012,09,21,17,22,14.20
2012,09,21,17,23,14.20
2012,09,21,17,24,14.20
2012,09,21,17,25,14.20
2012,09,21,17,26,14.20
2012,09,21,17,27,14.20
2012,09,21,17,28,14.20
2012,09,21,17,29,14.20
2012,09,21,17,30,14.20
2012,09,21,17,31,14.20
2012,09,21,17,32,14.10
2012,09,21,17,33,14.10
2012,09,21,17,34,14.10
2012,09,21,17,35,14.10
2012,09,21,17,36,14.10
2012,09,21,17,37,14.10
2012,09,21,17,38,14.10
2012,09,21,17,39,14.10
2012,09,21,17,40,14.10
2012,09,21,17,41,14.10
2012,09,21,17,42,14.10
2012,09,21,17,43,14.10
2012,09,21,17,44,14.10
2012,09,21,17,45,14.10
2012,09,21,17,46,14.20
2012,09,21,17,47,14.20
2012,09,21,17,48,14.20
2012,09,21,17,49,14.20
2012,09,21,17,50,14.20
2012,09,21,17,51,14.20
2012,09,21,17,52,14.20
2012,09,21,17,53,14.20
2012,09,21,17,54,14.20
2012,09,21,17,55,14.20
2012,09,21,17,56,14.20
2012,09,21,17,57,14.20
2012,09,21,17,58,14.20
2012,09,21,17,59,14.20
2012,09,21,18,00,14.20
2012,09,21,18,01,14.20
2012,09,21,18,02,14.20
2012,09,21,18,03,14.20
2012,09,21,18,04,14.20
2012,09,21,18,05,14.20
2012,09,21,18,06,14.20
2012,09,21,18,07,14.20
2012,09,21,18,08,14.20
2012,09,21,18,09,14.20
2012,09,21,18,10,14.20
2012,09,21,18,11,14.20
2012,09,21,18,12,14.10
2012,09,21,18,13,14.10
2012,09,21,18,14,14.10
2012,09,21,18,15,14.10
2012,09,21,18,16,14.10
2012,09,21,18,17,14.10
2012,09,21,18,18,14.10
2012,09,21,18,19,14.10
2012,09,21,18,20,14.10
2012,09,21,18,21,14.10
2012,09,21,18,22,14.00
2012,09,21,18,23,14.00
2012,09,21,18,24,14.00
2012,09,21,18,25,14.00
2012,09,21,18,26,14.00
2012,09,21,18,27,14.00
2012,09,21,18,28,14.00
2012,09,21,18,29,13.90
2012,09,21,18,30,13.90
2012,09,21,18,31,13.90
2012,09,21,18,32,13.90
2012,09,21,18,33,13.90
2012,09,21,18,34,13.90
2012,09,21,18,35,13.90
2012,09,21,18,36,13.80
2012,09,21,18,37,13.80
2012,09,21,18,38,13.80
2012,09,21,18,39,13.80
2012,09,21,18,40,13.80
2012,09,21,18,41,13.80
2012,09,21,18,42,13.80
2012,09,21,18,43,13.80
2012,09,21,18,44,13.80
2012,09,21,18,45,13.70
2012,09,21,18,46,13.70
2012,09,21,18,47,13.70
2012,09,21,18,48,13.70
2012,09,21,18,49,13.70
2012,09,21,18,50,13.70
2012,09,21,18,51,13.70
2012,09,21,18,52,13.70
2012,09,21,18,53,13.70
2012,09,21,18,54,13.70
2012,09,21,18,55,13.70
2012,09,21,18,56,13.60
2012,09,21,18,57,13.60
2012,09,21,18,58,13.60
2012,09,21,18,59,13.60
2012,09,21,19,00,13.60
2012,09,21,19,01,13.60
2012,09,21,19,02,13.50
2012,09,21,19,03,13.50
2012,09,21,19,04,13.50
2012,09,21,19,05,13.50
2012,09,21,19,06,13.50
2012,09,21,19,07,13.50
2012,09,21,19,08,13.50
2012,09,21,19,09,13.40
2012,09,21,19,10,13.40
2012,09,21,19,11,13.40
2012,09,21,19,12,13.40
2012,09,21,19,13,13.30
2012,09,21,19,14,13.30
2012,09,21,19,15,13.30
2012,09,21,19,16,13.30
2012,09,21,19,17,13.30
2012,09,21,19,18,13.30
2012,09,21,19,19,13.30
2012,09,21,19,20,13.30
2012,09,21,19,21,13.30
2012,09,21,19,22,13.30
2012,09,21,19,23,13.30
2012,09,21,19,24,13.30
2012,09,21,19,25,13.20
2012,09,21,19,26,13.20
2012,09,21,19,27,13.20
2012,09,21,19,28,13.20
2012,09,21,19,29,13.20
2012,09,21,19,30,13.10
2012,09,21,19,31,13.10
2012,09,21,19,32,13.10
2012,09,21,19,33,13.10
2012,09,21,19,34,13.10
2012,09,21,19,35,13.10
2012,09,21,19,36,13.10
2012,09,21,19,37,13.10
2012,09,21,19,38,13.10
2012,09,21,19,39,13.00
2012,09,21,19,40,13.00
2012,09,21,19,41,13.00
2012,09,21,19,42,13.00
2012,09,21,19,43,13.00
2012,09,21,19,44,13.00
2012,09,21,19,45,13.00
2012,09,21,19,46,13.00
2012,09,21,19,47,13.00
2012,09,21,19,48,13.00
2012,09,21,19,49,13.00
2012,09,21,19,50,13.00
2012,09,21,19,51,13.00
2012,09,21,19,52,13.00
2012,09,21,19,53,13.00
2012,09,21,19,54,13.00
2012,09,21,19,55,13.00
2012,09,21,19,56,13.00
2012,09,21,19,57,13.00
